Home   Weather   Blackpool   Past weeks
Flag for United Kingdom

Past Weather in Blackpool, England, United Kingdom — Yesterday and Last 2 Weeks

Now
46 °F

Clear.


Feels Like: 41 °F
Forecast: 49 / 43 °F
Wind: 10 mph from West

Location: Blackpool Airport

Current Time: Mar 26, 2019 at 12:21:41 am

Latest Report: Mar 25, 2019 at 8:50 pm


Visibility: 10 mi

Pressure: 30.57 "Hg

Humidity: 82%

Dew Point: 41 °F

Location of BlackpoolLocation

Past Weather in Blackpool — Graph

°F

Blackpool Temperature Yesterday

Maximum temperature yesterday: 50 °F (at 3:20 pm)
Minimum temperature yesterday: 45 °F (at 7:50 am)
Average temperature yesterday: 47 °F

High & Low Weather Summary for the Past Weeks

 TemperatureHumidityPressure
High54 °F (Mar 20, 2:50 pm)100% (Mar 16, 3:50 pm)30.57 "Hg (Mar 16, 3:50 pm)
Low41 °F (Mar 10, 8:20 pm)62% (Mar 25, 3:20 pm)29.15 "Hg (Mar 16, 2:50 pm)
Average47 °F84%30.01 "Hg
* Reported Mar 10 8:20 pm — Mar 25 8:50 pm, Blackpool. Weather by CustomWeather, © 2019

Note: Actual official high and low records may vary slightly from our data, if they occured in-between our weather recording intervals... More about our weather records

Advertising

Blackpool Weather History for the Previous 24 Hours

Scroll right to see more
 ConditionsComfort  
Time TempWeatherWind HumidityBarometerVisibility
8:50 pm
Mon, Mar 25
46 °FClear.10 mph82%30.57 "Hg10 mi
8:20 pm46 °FClear.12 mph82%30.57 "Hg10 mi
7:50 pm45 °FClear.6 mph87%30.57 "Hg10 mi
7:20 pm45 °FClear.7 mph87%30.57 "Hg10 mi
6:50 pm45 °FClear.8 mph87%30.57 "Hg10 mi
6:20 pm46 °FSunny.8 mph82%30.54 "Hg10 mi
5:50 pm46 °FSunny.9 mph82%30.54 "Hg10 mi
5:20 pm48 °FSunny.10 mph76%30.54 "Hg10 mi
4:50 pm48 °FPassing clouds.10 mph76%30.54 "HgN/A
4:20 pm48 °FPassing clouds.9 mph71%30.54 "HgN/A
3:50 pm48 °FSunny.12 mph71%30.54 "Hg10 mi
3:20 pm50 °FPassing clouds.12 mph62%30.54 "HgN/A
2:50 pm48 °FPassing clouds.13 mph66%30.54 "HgN/A
2:20 pm48 °FSunny.13 mph66%30.57 "Hg10 mi
1:50 pm48 °FSunny.14 mph66%30.54 "Hg10 mi
1:20 pm48 °FSunny.14 mph66%30.54 "Hg10 mi
12:50 pm48 °FSunny.14 mph66%30.54 "Hg10 mi
11:50 am48 °FPassing clouds.10 mph66%30.54 "HgN/A
11:20 am48 °FPassing clouds.13 mph71%30.54 "HgN/A
10:50 am48 °FPassing clouds.13 mph71%30.54 "HgN/A
9:50 am46 °FPassing clouds.13 mph76%30.54 "HgN/A
9:20 am46 °FSunny.14 mph76%30.51 "Hg10 mi
8:50 am46 °FSunny.15 mph71%30.51 "Hg10 mi
8:20 am45 °FSunny.18 mph76%30.51 "Hg10 mi
7:50 am45 °FSunny.16 mph81%30.48 "Hg10 mi
Weather by CustomWeather, © 2019

See weather overview